CW2548 Weather Reports


time (UTC)temp
C
wind
direction
speed
KPH
gust
KPH
rain 1hr
cm
rain 24hr
cm
rain mn
cm
humidity
%
barometer
mb
20260902013416 30 195 6.4 8.0 0.00 0.36 0.00 69 1012.1
20260902012437 29 324 4.8 4.8 0.00 0.36 0.00 71 1011.8
20260902011416 29 263 3.2 4.8 0.00 0.36 0.00 70 1011.7
20260902010416 30 266 8.0 12.9 0.00 0.36 0.00 70 1011.5
20260902005416 30 244 9.7 19.3 0.00 0.36 0.00 68 1011.6
20260902004416 30 246 8.0 12.9 0.20 0.36 0.00 67 1011.6
20260902003416 28 247 11.3 16.1 0.36 0.36 0.00 71 1011.6
20260902002416 28 258 16.1 24.1 0.36 0.36 0.00 74 1011.8
20260902001416 29 234 16.1 29.0 0.36 0.36 0.00 76 1011.8
20260902000437 30 234 8.0 11.3 0.36 0.36 0.00 72 1011.1
20260901235437 30 153 9.7 17.7 0.36 0.36 0.36 72 1010.9
20260901234417 32 185 22.5 25.7 0.15 0.15 0.15 65 1011.2
20260901233436 35 237 17.7 20.9 0.00 0.00 0.00 54 1011.1
20260901232418 37 218 9.7 14.5 0.00 0.00 0.00 48 1011.2
20260901231436 37 78 1.6 3.2 0.00 0.00 0.00 45 1011.1
20260901230437 37 296 1.6 1.6 0.00 0.00 0.00 46 1011.1
20260901225416 37 311 4.8 6.4 0.00 0.00 0.00 45 1011.1
20260901224456 37 288 6.4 11.3 0.00 0.00 0.00 45 1011.2
20260901223417 38 295 0.0 4.8 0.00 0.00 0.00 43 1011.3
20260901222417 38 297 8.0 9.7 0.00 0.00 0.00 44 1011.5
20260901221416 38 290 4.8 9.7 0.00 0.00 0.00 44 1011.7
20260901220416 38 211 1.6 3.2 0.00 0.00 0.00 43 1011.9
20260901215416 38 261 4.8 11.3 0.00 0.00 0.00 44 1011.9
20260901214416 38 157 4.8 8.0 0.00 0.00 0.00 44 1012.1
20260901213416 38 247 6.4 9.7 0.00 0.00 0.00 44 1012.2
20260901212416 38 195 4.8 9.7 0.00 0.03 0.00 45 1012.4
20260901211416 38 153 8.0 9.7 0.00 0.18 0.00 46 1012.6
20260901210416 37 139 8.0 11.3 0.00 0.51 0.00 46 1012.7
20260901205416 37 16 3.2 4.8 0.00 0.58 0.00 48 1012.8
20260901204416 37 87 11.3 14.5 0.00 0.61 0.00 48 1013.0
20260901203417 36 186 9.7 16.1 0.00 0.66 0.00 50 1013.2
20260901202416 37 120 4.8 6.4 0.00 0.66 0.00 48 1013.4
20260901201416 37 118 0.0 1.6 0.00 0.66 0.00 49 1013.6
20260901200416 37 179 6.4 9.7 0.00 0.66 0.00 47 1013.8
20260901195416 36 115 3.2 4.8 0.00 0.66 0.00 47 1013.9
20260901194416 37 74 3.2 4.8 0.00 0.66 0.00 49 1014.2
20260901193416 36 259 3.2 4.8 0.00 0.66 0.00 50 1014.3
20260901192457 36 173 3.2 9.7 0.00 0.66 0.00 51 1014.5
20260901191416 36 112 8.0 11.3 0.00 0.66 0.00 52 1014.6
20260901190416 36 161 9.7 11.3 0.00 0.66 0.00 52 1014.8
20260901185416 36 156 3.2 4.8 0.00 0.66 0.00 53 1015.0
20260901184417 35 206 3.2 11.3 0.00 0.66 0.00 56 1014.9
20260901183416 35 207 1.6 1.6 0.00 0.66 0.00 56 1015.1
20260901182416 35 225 3.2 11.3 0.00 0.66 0.00 58 1015.2
20260901181417 34 59 6.4 9.7 0.00 0.66 0.00 59 1015.2
20260901180416 34 142 8.0 11.3 0.00 0.66 0.00 59 1015.4
20260901175437 35 170 4.8 6.4 0.00 0.66 0.00 61 1015.5
20260901174416 34 141 9.7 12.9 0.00 0.66 0.00 61 1015.5
20260901173416 33 112 6.4 9.7 0.00 0.66 0.00 63 1015.5
20260901172416 33 146 4.8 9.7 0.00 0.66 0.00 64 1015.7
20260901171416 33 132 6.4 11.3 0.00 0.66 0.00 65 1015.7
20260901170417 32 208 1.6 6.4 0.00 0.66 0.00 66 1015.7
20260901165416 32 136 1.6 1.6 0.00 0.66 0.00 68 1015.7
20260901164416 31 157 9.7 11.3 0.00 0.66 0.00 70 1015.6
20260901163416 31 146 3.2 6.4 0.00 0.66 0.00 71 1015.5
20260901162437 31 95 3.2 8.0 0.00 0.66 0.00 72 1015.5
20260901161416 31 126 4.8 6.4 0.00 0.66 0.00 74 1015.5
20260901160416 30 65 1.6 3.2 0.00 0.66 0.00 76 1015.4
20260901155416 29 64 6.4 9.7 0.00 0.66 0.00 77 1015.4
20260901154417 29 64 6.4 8.0 0.00 0.66 0.00 79 1015.4
20260901153416 28 79 4.8 6.4 0.00 0.66 0.00 79 1015.4
20260901152417 28 76 8.0 11.3 0.00 0.66 0.00 80 1015.5
20260901151416 28 67 6.4 11.3 0.00 0.66 0.00 80 1015.4
20260901150416 27 79 4.8 11.3 0.00 0.66 0.00 81 1015.3
20260901145416 27 83 6.4 8.0 0.00 0.66 0.00 82 1015.2
20260901144416 27 70 6.4 9.7 0.00 0.66 0.00 82 1015.1
20260901143416 27 44 6.4 12.9 0.00 0.66 0.00 82 1015.0
20260901142416 26 78 6.4 9.7 0.00 0.66 0.00 83 1014.9
20260901141437 26 74 4.8 6.4 0.00 0.66 0.00 84 1014.9
20260901140416 26 71 4.8 6.4 0.00 0.66 0.00 84 1014.7
20260901135416 26 72 6.4 9.7 0.00 0.66 0.00 85 1014.6
20260901134416 26 78 1.6 4.8 0.00 0.66 0.00 86 1014.5
20260901133416 25 83 6.4 8.0 0.00 0.66 0.00 86 1014.4
20260901132416 25 91 4.8 6.4 0.00 0.66 0.00 87 1014.2
20260901131416 25 91 3.2 4.8 0.00 0.66 0.00 87 1014.1
20260901130416 25 102 1.6 3.2 0.00 0.66 0.00 87 1013.9
20260901125416 25 107 3.2 4.8 0.00 0.66 0.00 87 1013.9
20260901124417 25 82 3.2 4.8 0.00 0.66 0.00 87 1013.7
20260901123416 25 102 3.2 4.8 0.00 0.66 0.00 87 1013.6
20260901122416 25 107 3.2 4.8 0.00 0.66 0.00 87 1013.6
20260901121416 25 130 1.6 3.2 0.00 0.66 0.00 87 1013.5
20260901120416 25 118 3.2 3.2 0.00 0.66 0.00 87 1013.4
20260901115416 25 98 3.2 4.8 0.00 0.66 0.00 88 1013.4
20260901114416 25 103 1.6 4.8 0.00 0.66 0.00 88 1013.4
20260901113416 25 122 6.4 6.4 0.00 0.66 0.00 88 1013.4
20260901112416 25 111 3.2 6.4 0.00 0.66 0.00 88 1013.4
20260901111416 25 92 4.8 6.4 0.00 0.66 0.00 88 1013.4
20260901110416 25 78 4.8 6.4 0.00 0.66 0.00 87 1013.4
20260901105416 25 89 3.2 6.4 0.00 0.66 0.00 87 1013.4
20260901104416 25 80 6.4 8.0 0.00 0.66 0.00 87 1013.2
20260901103416 25 71 6.4 8.0 0.00 0.66 0.00 86 1013.3
20260901102416 26 72 4.8 4.8 0.00 0.66 0.00 86 1013.4
20260901101416 26 88 3.2 4.8 0.00 0.66 0.00 85 1013.2
20260901100416 26 81 1.6 1.6 0.00 0.66 0.00 85 1013.2
20260901095416 26 77 3.2 4.8 0.00 0.66 0.00 85 1013.4
20260901094416 26 86 0.0 3.2 0.00 0.66 0.00 85 1013.4
20260901093416 26 97 3.2 6.4 0.00 0.66 0.00 85 1013.5
20260901092416 26 94 3.2 6.4 0.00 0.66 0.00 85 1013.5
20260901091416 26 78 4.8 8.0 0.00 0.66 0.00 85 1013.9
20260901090416 26 93 3.2 4.8 0.00 0.66 0.00 85 1013.9
20260901085417 26 67 3.2 4.8 0.00 0.66 0.00 84 1013.9
20260901084416 26 93 4.8 6.4 0.00 0.66 0.00 85 1014.1
20260901083437 26 87 1.6 3.2 0.00 0.66 0.00 86 1014.1
20260901082416 26 72 3.2 4.8 0.00 0.66 0.00 86 1014.0
20260901081417 26 96 3.2 4.8 0.00 0.66 0.00 86 1013.9
20260901080416 26 102 3.2 4.8 0.00 0.66 0.00 86 1013.8
20260901075416 26 90 1.6 3.2 0.00 0.66 0.00 87 1013.7
20260901074416 26 96 3.2 4.8 0.00 0.66 0.00 88 1013.8
20260901073436 26 71 3.2 3.2 0.00 0.66 0.00 88 1013.7
20260901072416 26 0.0 0.0 0.00 0.66 0.00 88 1013.8
20260901071416 26 0.0 3.2 0.00 0.66 0.00 88 1013.9
20260901070416 26 72 1.6 6.4 0.00 0.66 0.00 87 1013.7
20260901065436 26 69 3.2 6.4 0.00 0.66 0.00 86 1013.8
20260901064416 26 77 4.8 8.0 0.00 0.66 0.00 86 1013.7
20260901063438 26 80 4.8 6.4 0.00 0.66 0.00 85 1013.6
20260901062416 26 124 3.2 8.0 0.00 0.66 0.00 85 1013.8
20260901061416 26 83 3.2 3.2 0.00 0.66 0.00 84 1013.8
20260901060416 26 125 3.2 4.8 0.00 0.66 0.00 84 1014.0
20260901055457 26 128 3.2 6.4 0.00 0.66 0.00 84 1014.1
20260901054416 26 99 3.2 4.8 0.00 0.66 0.00 84 1014.3
20260901053416 26 78 6.4 8.0 0.00 0.66 0.00 83 1014.2
20260901052416 26 97 4.8 8.0 0.00 0.66 0.00 84 1014.3
20260901051416 26 95 4.8 6.4 0.00 0.66 0.00 84 1014.6
20260901050417 26 93 4.8 11.3 0.00 0.66 0.00 84 1014.7
20260901045416 26 108 6.4 11.3 0.00 0.66 0.00 84 1014.8
20260901044416 26 80 9.7 9.7 0.00 0.66 0.00 84 1014.9
20260901043416 26 83 4.8 8.0 0.00 0.66 0.00 83 1015.0
20260901042457 26 81 9.7 14.5 0.00 0.66 0.00 83 1015.1
20260901041416 26 76 11.3 16.1 0.00 0.66 0.00 82 1015.0
20260901040416 26 71 12.9 19.3 0.00 0.66 0.00 82 1015.0
20260901035416 26 71 8.0 19.3 0.00 0.66 0.00 82 1014.9
20260901034416 26 58 6.4 11.3 0.00 0.66 0.00 82 1014.7
20260901033417 27 72 11.3 14.5 0.00 0.66 0.00 81 1014.6
20260901032416 27 69 14.5 19.3 0.00 0.66 0.00 81 1014.4
20260901031436 26 47 8.0 14.5 0.00 0.66 0.00 82 1014.2
20260901030416 26 20 6.4 8.0 0.00 0.66 0.00 83 1013.9
20260901025438 27 56 11.3 14.5 0.00 0.66 0.00 83 1013.7
20260901024416 27 68 9.7 16.1 0.00 0.66 0.00 83 1013.3
20260901023437 27 57 11.3 19.3 0.00 0.66 0.00 82 1013.4
20260901022416 27 62 12.9 19.3 0.00 0.66 0.00 80 1013.3
20260901021417 27 75 11.3 14.5 0.00 0.66 0.00 80 1013.1
20260901020416 27 94 11.3 14.5 0.00 0.66 0.00 79 1012.8
20260901015416 28 44 11.3 17.7 0.00 0.66 0.00 77 1012.8
20260901014417 28 56 8.0 20.9 0.00 0.66 0.00 77 1012.6